Погода в Ихале

Россия / Республика Карелия     61°29′53″N   30°00′00″E
темп.,
°C
ветер,
м/с
пор.,
м/с
влажн.,
%
обл.,
%
осадки,
мм/ч
давл.,
гПа
погр.,
м
15 апреля, чт
чт1500:00+1сз227669 0.0 102643
03:000ссз25805 0.0 102884
06:00−1с25865 0.0 1029113
09:00+3с24685 0.0 1030461
12:00+6ссв23494 0.0 10311119
15:00+8ссв33400 0.0 10311284
18:00+8ссв24440 0.0 10311214
21:00+3ссв22710 0.0 103129
16 апреля, пт
пт1600:00+1св23750 0.0 103264
03:000св22820 0.0 103246
06:000св26811 0.0 1033113
09:00+5всв36555 0.0 1033405
12:00+8всв36405 0.0 1034907
15:00+10всв35375 0.0 10331158
18:00+10всв36455 0.0 10331102
21:00+5всв287010 0.0 1034157
17 апреля, сб
сб1700:00+3всв28805 0.0 1035183
03:00+2всв28865 0.0 1035154
06:00+1всв27905 0.0 1035126
09:00+6в36684 0.0 1036319
12:00+9в35520 0.0 1035755
15:00+11вюв34440 0.0 1035985
18:00+11в23420 0.0 1034795
21:00+6св11591 0.0 103410
18 апреля, вс
вс1800:00+4всв22722 0.0 103424
03:00+3в11775 0.0 103511
06:00+2в22785 0.0 103519
09:00+6вюв23595 0.0 1035255
12:00+10вюв23495 0.0 1035654
15:00+11вюв33445 0.0 1034795
18:00+10вюв23445 0.0 1033492
21:00+5в11605 0.0 103310
19 апреля, пн
пн1900:00+5в12625 0.0 103310
03:00+3в22725 0.0 103416
06:00+2в258522 0.0 103392
09:00+6вюв356920 0.0 1033248
12:00+9вюв36575 0.0 1033462
15:00+10вюв35515 0.0 1032622
18:00+10вюв24555 0.0 1030376
21:00+5в22745 0.0 102919